This demonstration page uses our WeatherBlox Daily Observations layout. Learn more.

Left ArrowRight Arrow

Hourly Observations for July 6, 2018

Temp ( °F °C ) Dew Point ( °F °C ) Humidity (%) Winds ( mph kmh ) Pressure ( in mb ) Visibility ( mi km ) Precip ( " mm )
12:53 am 00:53 Clear 69 20.6 61 16.1 76 76 ENE 9 15 30.06 1018 10 16 0.00 0.00
1:53 am 01:53 Clear 69 20.6 61 16.1 76 76 E 13 20 30.05 1018 10 16 0.00 0.00
2:53 am 02:53 Clear 66 18.9 60 15.6 81 81 E 9 15 30.04 1017 10 16 0.00 0.00
3:53 am 03:53 Clear 64 17.8 60 15.6 87 87 ENE 10 17 30.02 1017 10 16 0.00 0.00
4:53 am 04:53 Clear 63 17.2 60 15.6 90 90 ENE 10 17 30.02 1017 10 16 0.00 0.00
5:53 am 05:53 Sunny 59 15 58 14.4 96 96 Calm 30.03 1017 10 16 0.00 0.00
6:53 am 06:53 Sunny 62 16.7 59 15 90 90 Calm 30.03 1017 10 16 0.00 0.00
7:53 am 07:53 Sunny 68 20 60 15.6 76 76 Calm 30.02 1017 10 16 0.00 0.00
8:53 am 08:53 Sunny 74 23.3 62 16.7 67 67 W 3 6 30.01 1016 10 16 0.00 0.00
9:53 am 09:53 Sunny 80 26.7 62 16.7 54 54 Calm 29.99 1016 10 16 0.00 0.00
10:53 am 10:53 Sunny 85 29.4 63 17.2 48 48 VRB 5 7 29.98 1015 10 16 0.00 0.00
11:53 am 11:53 Sunny 89 31.7 60 15.6 38 38 VRB 3 6 29.96 1015 10 16 0.00 0.00
12:53 pm 12:53 Sunny 92 33.3 58 14.4 32 32 undefined N/A 29.93 1014 10 16 0.00 0.00
1:53 pm 13:53 Sunny 98 36.7 50 10 20 20 SSW 12 19 29.89 1012 10 16 0.00 0.00
2:53 pm 14:53 Sunny 100 37.8 51 10.6 19 19 WSW 17 28 29.88 1012 10 16 0.00 0.00
3:53 pm 15:53 Sunny 101 38.3 48 8.9 17 17 WSW 10 17 29.86 1011 10 16 0.00 0.00
4:53 pm 16:53 Sunny 101 38.3 45 7.2 15 15 SW 9 15 29.83 1010 10 16 0.00 0.00
5:53 pm 17:53 Sunny 101 38.3 46 7.8 15 15 SW 12 19 29.82 1010 10 16 0.00 0.00
6:53 pm 18:53 Sunny 99 37.2 46 7.8 16 16 WSW 9 15 29.81 1010 10 16 0.00 0.00
7:53 pm 19:53 Sunny 92 33.3 49 9.4 23 23 SW 7 11 29.81 1010 10 16 0.00 0.00
8:23 pm 20:23 Partly Cloudy 90 32.2 40 4.4 17 17 NW 23 37 29.68 1005 10 16 0.00 0.00
8:53 pm 20:53 Partly Cloudy with Nearby Thunderstorms 89 31.7 32 0 13 13 WNW 20 31 29.85 1011 10 16 0.00 0.00
9:10 pm 21:10 Mostly Sunny 88 31 27 -3 11 11 WNW 20 31 29.71 1006 10 16 0.00 0.00
9:53 pm 21:53 Clear 78 25.6 30 -1.1 17 17 WSW 5 7 29.87 1012 10 16 0.00 0.00
10:53 pm 22:53 Clear 79 26.1 33 0.6 19 19 SW 9 15 29.88 1012 10 16 0.00 0.00
11:53 pm 23:53 Mostly Clear 78 25.6 33 0.6 19 19 WSW 10 17 29.87 1012 10 16 0.00 0.00

Powered by AerisWeather